Regional Weather Roundup
Issued by NWS

Home | Current Version | Previous Version | Text Only | Print | Product List | Glossary Off
Versions: 1 2 3 4 5 6 7 8 9 10 11 12 13 14 15 16 17 18 19 20 21 22 23 24 25 26 27 28 29 30 31 32 33 34 35 36 37 38 39 40 41 42 43 44 45 46 47 48 49 50

000
ASUS43 KLSX 241607
RWRMO

WEATHER SUMMARY FOR MISSOURI
NATIONAL WEATHER SERVICE SPRINGFIELD MO
1100 AM CDT THU JUL 24 2014

NOTE: "FAIR" INDICATES FEW OR NO CLOUDS BELOW 12,000 FEET WITH NO
       SIGNIFICANT WEATHER AND/OR OBSTRUCTIONS TO VISIBILITY.
       CURRENT SKY AND/OR WEATHER CONDITIONS ARE NOT AVAILABLE FOR
       CHILLICOTHE AND FARMINGTON.

MOZ001>031-035>038-043-044-053-054-241700-
...NORTHERN AND WESTERN MISSOURI...

CITY           SKY/WX    TMP DP  RH WIND       PRES   REMARKS
KANSAS CTY INT MOSUNNY   77  59  53 SE13G20   30.15F
KANSAS C DTWN  SUNNY     78  57  48 SE9       30.15S
LEE`S SUMMIT   SUNNY     76  58  53 E12       30.17S
ST JOSEPH      SUNNY     76  59  55 SE15      30.15S
CHILLICOTHE      N/A     77  59  53 VRB7      30.18R
KIRKSVILLE     SUNNY     74  61  63 E7        30.18F

$$
MOZ066>068-077>081-088>096-101>105-241700-
...SOUTHWEST MISSOURI...

CITY           SKY/WX    TMP DP  RH WIND       PRES   REMARKS
SPRINGFIELD    SUNNY     77  59  53 E12       30.15S
JOPLIN         MOSUNNY   81  66  60 E9G18     30.13S

$$
MOZ032>034-039>042-045>050-055>058-069>072-241700-
...CENTRAL MISSOURI...

CITY           SKY/WX    TMP DP  RH WIND       PRES   REMARKS
COLUMBIA       SUNNY     75  59  57 E8        30.18R
JEFFERSON CITY SUNNY     74  58  57 SE7       30.16S
ROLLA          SUNNY     75  54  47 VRB7      30.16F
SEDALIA        SUNNY     78  58  49 SE10      30.18S HAZE
WHITEMAN AFB   SUNNY     76  48  36 SE8       30.17R
OSAGE BEACH    SUNNY     77  55  47 E12       30.16F

$$
MOZ051-052-059>065-241700-
...EAST CENTRAL MISSOURI...

CITY           SKY/WX    TMP DP  RH WIND       PRES   REMARKS
ST LOUIS INTL  MOSUNNY   75  56  51 NE12G17   30.15F
SPIRIT OF STL  SUNNY     73  53  49 E6        30.15R
ST CHARLES     SUNNY     73  58  59 NE8       30.15S

$$
MOZ072>076-082>087-097>100-106>115-241700-
...SOUTH CENTRAL AND SOUTHEAST MISSOURI...

CITY           SKY/WX    TMP DP  RH WIND       PRES   REMARKS
CAPE GIRARDEAU SUNNY     74  60  61 N10       30.10S
FARMINGTON     SUNNY     72  46  40 NE12      30.16S
POPLAR BLUFF   SUNNY     76  54  46 N9        30.10F
WEST PLAINS    SUNNY     74  55  51 E9        30.17S

$$


USA.gov is the U.S. government's official web portal to all federal, state and local government web resources and services.